Погода в Воронеже

Погода в Воронеже : погода сейчас, прогноз погоды и архив. Всё, что Вы хотите узнать о погоде в Воронеже!

Хотите узнать прогноз погоды в Воронеже? Тогда Вам сюда: Погода в Воронеже

Поиск расширенной информации на нашем сайте:

Другие новости

Новости СМИ2

Главная страница сайта

Новости сайта

03.07.2017

Напоминаем, что на нашем специализированном сайте Метеоцентр.Азия вы можете получить высокодетализированные автоматические прогнозы погоды по пунктам России, СНГ и мира в авиационном формате (включающие направление и скорость ветра, видимость, явления погоды, количество и форму облачности, нижнюю и верхнюю границу облачности).


Погода в Воронеже - сегодня

Время (UTC), дата Ветер
(°,м/с) 
Видим.   Явления Облачность Т
(°С)
Тd
(°С)
f(%) Тe
(°С)
Pmin
(гПа)
dP
(гПа)
Po
(мм)
O2
(г/м3)
Тmin Tmax R s Состояние
почвы
06 21.06.18 280 (З) 10 км    ясно 
+21.4 +10.9 51 +24  1015.5  0.5  749  278           
09 21.06.18 290 (З) 10 км    ясно 
+25 +8.3 35 +25  1014.2  -0.9  748  275           
12 21.06.18 280 (З) 4{10}  10 км    ясно 
+26.7 +8.5 32 +27  1013.2  -0.9  747  273           
18 21.06.18 тихо ()   10 км    ясно 
+22.6 +11.8 50 +26  1013.1  0.3  747  276           
21 21.06.18 тихо ()   10 км    ясно 
+17.1 +11.8 71 +21  1013.6  0.2  747  281           
00 22.06.18 тихо ()   10 км    ясно 
+15 +12.8 87 +20  1013.9  0.2  747  283           
03 22.06.18 тихо ()   10 км    ясно 
+17.8 +14.9 83 +26  1013.9  0.1  747  280  +13.8         
06 22.06.18 160 (Ю) 10 км    ясно 
+25.8 +11.9 42 +30  1013.1  -0.3  747  273           
09 22.06.18 160 (Ю) 10 км    3/3 1000 м 
[Cu hum]
+29 +12.3 36 +33  1012.5  -0.5  747  270           
12 22.06.18 170 (Ю) 10 км    ясно 
+30.6 +12.3 33 +35  1011  -1.4  746  268           
15 22.06.18 220 (ЮЗ) 10 км    ясно 
+31.3 +12 31 +35  1010  -1  745  267    +31.5       
18 22.06.18 тихо ()   10 км    ясно 
+25.4 +13.5 48 +32  1010.5  0.3  745  272           
21 22.06.18 тихо ()   10 км    ясно 
+20.5 +13.6 65 +27  1011  0.2  745  277           
00 23.06.18 060 (СВ) 10 км    ясно 
+18.4 +16.1 86 +31  1011.3  0.2  746  278           
03 23.06.18 140 (ЮВ) 10 км    ясно 
+19.2 +13.6 70 +27  1011.5  0.3  746  278  +16         
06 23.06.18 160 (Ю) 10 км    1/0 верхняя 
[Ci fib]
+27.2 +9.8 34 +28  1011.1  -0.1  746  272           
09 23.06.18 150 (ЮВ) 6{10}  10 км    ясно 
+32.2 +5.7 19 +32  1009.9  -0.9  745  268          влажная 
18 23.06.18 100 (В) 10 км    8/0 верхняя 
[Ci]
+25.5 +10.7 39 +28  1007.4  -0.2  743  272           
21 23.06.18 тихо ()   10 км    8/0 верхняя 
[Ci]
+22.6 +10.9 48 +25  1007.3  -0.4  743  274           
00 24.06.18 140 (ЮВ) 10 км    6/0 верхняя 
[Ci]
+22.3 +9.3 43 +23  1007.2  -0.1  743  275           
06 24.06.18 140 (ЮВ) 10 км    8/0 верхняя 
[Ci]
+25.2 +7.5 32 +25  1006.8  -0.3  742  273           
09 24.06.18 200 (Ю) 10 км    8/0 верхняя 
[Ci]
+29 +9.8 30 +30  1006.7  0.2  743  269           
12 24.06.18 280 (З) 10 км    9/0 средняя, верхняя 
[Ac As|Ci]
+27.4 +10.9 36 +30  1007.4  0.6  743  270           
15 24.06.18 290 (З) 6{10}  10 км  слаб. ливневой дождь{гроза}  10/10 300 м кучево-дожд. 
[Cb calv]
+17.6 +16.1 91 +28  1011  745  279    +29.3     
21 24.06.18 280 (З) 10 км  {ливн. осадки}  6/0 средняя, верхняя 
[Ac trans|Ci fib]
+14.6 +12.2 86 +19  1016.2  1.7  749  284           
Время (UTC), дата Ветер
(°,м/с) 
Видим.   Явления Облачность Т
(°С)
Тd
(°С)
f(%) Тe
(°С)
Pmin
(гПа)
dP
(гПа)
Po
(мм)
O2
(г/м3)
Тmin Tmax R s Состояние
почвы

Для получения пояснительной информации подведите курсор к названию столбца.

ПОГОДА в Воронеже - архив

Всё, что Вы хотите узнать о погоде в Воронеже - удобно и подробно!

Выберите нужную дату (начиная с 1 января 2015* года) и нажмите кнопку "Найти".
Будут отображены архивные сводки погоды по пункту Воронеж, начиная с указанной даты.


Отображать данные в формате CSV (для использования в таблицах Excel)


Внимание! Наш архив погоды предназначен исключительно для личного некоммерческого использования в познавательных целях. Если Вам необходимы официальные справки о состоянии погоды (для производственных, юридических, коммерческих и т.п. целей), обращайтесь в органы Росгидромета.

*Примечание: данная дата относится к архиву по метеостанциям СССР (Россия, СНГ, Балтия).
Архив по метеостанциям Зарубежной Европы и Азии (кроме Китая) хранится 10 дней, по другим регионам земного шара (Китай, Африка, Америка, Австралия, Океания) - 1 день.

Воронеж - район местоположения метеостанции


Название, широта, долгота, высота метеостанции:
Воронеж (город) 51.6°ш. 39.2°д. 104 м над ур. моря [Российская Федерация]

Дополнительная информация

В oтличие oт бoльшинства пoгoдных сайтoв мы публикуем пoдрoбную метеoинфoрмацию в детальнoм прoфессиoнальнoм фoрмате.

Характеристики температуры и влажнoсти вoздуха измеряются на высoте 2 м в тени вдали oт зданий и деревьев.
Скoрoсть ветра измеряется на высoте 10 м (на урoвне рoста челoвека скoрoсть ветра ниже в 1.5-2 раза). Если метеoстанция нахoдится в гoрoде или в лесу, тo скoрoсть ветра занижена на 2-4 м/с пo сравнению с oткрытым местoм. Скoрoсть ветра над акватoриями крупных рек и oзёр, а также на вершинах хoлмoв на 2-5 м/с выше, чем в oбычных услoвиях.
Атмoсфернoе давление в разных тoчках местнoсти мoжет значительнo oтличаться oт давления на метеoстанции, в зависимoсти oт услoвий рельефа (при пoдъёме на 10 м давление пoнижается примернo на 1 мм рт.ст.).